QPF
0.00 0.00 0.00 0.00 0.00 0.00 0.00 0.00 0.00 0.00 0.00 0.00 0.00 0.00 0.00 0.00 0.00 0.00 0.01 0.00 0.00 0.00 0.00 0.00 0.00 0.00 0.00 0.00 0.00 0.00 0.00 0.00 0.00 0.00 0.00 0.00 0.00 0.00 0.00 0.00 0.00 0.01 0.01 0.01 0.00 0.00 0.00 0.00 0.00
0.00 0.00 0.00 0.00 0.00 0.00 0.00 0.00 0.00 0.00 0.00 0.00 0.00 0.00 0.00 0.00 0.00 0.00 0.02 0.00 0.00 0.00 0.00 0.00 0.00 0.00 0.00 0.00 0.00 0.00 0.00 0.00 0.00 0.00 0.00 0.00 0.00 0.00 0.00 0.00 0.00 0.00 0.00 0.00 0.01 0.00 0.00 0.00 0.00
0.00 0.00 0.00 0.00 0.00 0.00 0.00 0.00 0.00 0.00 0.00 0.00 0.00 0.00 0.00 0.00 0.00 0.01 0.01 0.00 0.00 0.00 0.00 0.00 0.00 0.00 0.00 0.00 0.00 0.00 0.00 0.00 0.00 0.00 0.00 0.00 0.00 0.00 0.00 0.00 0.00 0.00 0.00 0.00 0.01 0.01 0.00 0.00 0.00
0.00 0.00 0.00 0.00 0.00 0.00 0.00 0.00 0.00 0.00 0.00 0.00 0.00 0.00 0.00 0.00 0.00 0.00 0.00 0.00 0.00 0.00 0.00 0.00 0.00 0.00 0.00 0.00 0.00 0.00 0.00 0.00 0.00 0.00 0.00 0.00 0.01 0.00 0.00 0.00 0.00 0.00 0.00 0.00 0.00 0.00 0.00 0.00 0.00
0.00 0.00 0.00 0.00 0.00 0.00 0.00 0.00 0.00 0.00 0.00 0.00 0.00 0.00 0.00 0.00 0.00 0.00 0.00 0.00 0.00 0.00 0.00 0.00 0.00 0.00 0.00 0.00 0.00 0.00 0.00 0.00 0.00 0.00 0.00 0.00 0.01 0.01 0.00 0.00 0.00 0.00 0.00 0.00 0.00 0.00 0.00 0.00 0.00
0.00 0.00 0.00 0.00 0.00 0.00 0.00 0.00 0.00 0.00 0.00 0.00 0.00 0.00 0.00 0.00 0.00 0.00 0.00 0.00 0.00 0.00 0.00 0.00 0.00 0.00 0.00 0.00 0.00 0.00 0.00 0.00 0.00 0.00 0.00 0.00 0.00 0.00 0.01 0.01 0.01 0.00 0.00 0.00 0.00 0.00 0.00 0.00 0.00
0.00 0.00 0.00 0.00 0.00 0.00 0.00 0.00 0.00 0.00 0.00 0.00 0.00 0.00 0.00 0.00 0.00 0.00 0.00 0.00 0.00 0.00 0.00 0.00 0.00 0.00 0.00 0.00 0.00 0.00 0.00 0.00 0.00 0.00 0.00 0.00 0.00 0.00 0.00 0.00 0.00 0.00 0.00 0.00 0.00 0.00 0.00 0.00 0.00
0.00 0.00 0.00 0.00 0.00 0.00 0.00 0.00 0.00 0.00 0.00 0.00 0.00 0.00 0.00 0.00 0.00 0.00 0.00 0.00 0.00 0.00 0.00 0.00 0.00 0.00 0.00 0.00 0.00 0.00 0.00 0.00 0.00 0.00 0.00 0.00 0.00 0.00 0.00 0.00 0.00 0.00 0.00 0.00 0.00 0.00 0.00 0.00 0.00
0.00 0.00 0.00 0.00 0.00 0.00 0.00 0.00 0.00 0.00 0.00 0.00 0.00 0.00 0.00 0.00 0.00 0.00 0.00 0.00 0.00 0.00 0.00 0.00 0.00 0.00 0.00 0.00 0.00 0.00 0.00 0.00 0.00 0.00 0.00 0.00 0.00 0.00 0.00 0.00 0.00 0.00 0.00 0.00 0.00 0.00 0.00 0.00 0.00
0.00 0.00 0.00 0.00 0.00 0.00 0.00 0.00 0.00 0.00 0.00 0.00 0.00 0.00 0.00 0.00 0.00 0.00 0.00 0.00 0.00 0.00 0.00 0.00 0.00 0.00 0.00 0.00 0.00 0.00 0.00 0.00 0.00 0.00 0.00 0.00 0.00 0.00 0.00 0.00 0.00 0.00 0.00 0.00 0.00 0.00 0.00 0.00 0.00
0.00 0.00 0.00 0.00 0.00 0.00 0.00 0.00 0.00 0.00 0.00 0.00 0.00 0.00 0.00 0.00 0.00 0.00 0.00 0.00 0.00 0.00 0.00 0.00 0.00 0.00 0.00 0.00 0.00 0.00 0.00 0.00 0.00 0.00 0.00 0.00 0.00 0.00 0.00 0.00 0.00 0.00 0.00 0.00 0.00 0.00 0.00 0.00 0.00
0.00 0.00 0.00 0.00 0.00 0.00 0.00 0.00 0.00 0.00 0.00 0.00 0.00 0.00 0.00 0.00 0.00 0.00 0.00 0.00 0.00 0.00 0.00 0.00 0.00 0.00 0.00 0.00 0.00 0.00 0.00 0.00 0.00 0.00 0.00 0.00 0.00 0.00 0.00 0.00 0.00 0.00 0.00 0.00 0.00 0.00 0.00 0.00 0.00
0.00 0.00 0.00 0.00 0.00 0.00 0.00 0.00 0.00 0.00 0.00 0.00 0.00 0.00 0.00 0.00 0.00 0.00 0.00 0.00 0.00 0.00 0.00 0.00 0.00 0.00 0.00 0.00 0.00 0.00 0.00 0.00 0.00 0.00 0.00 0.00 0.00 0.00 0.00 0.00 0.00 0.00 0.00 0.00 0.00 0.00 0.01 0.00 0.00
0.00 0.00 0.00 0.00 0.00 0.00 0.00 0.00 0.00 0.00 0.00 0.00 0.00 0.00 0.00 0.00 0.00 0.00 0.00 0.00 0.00 0.00 0.00 0.00 0.00 0.00 0.00 0.00 0.00 0.00 0.00 0.00 0.00 0.00 0.00 0.00 0.00 0.00 0.00 0.00 0.00 0.00 0.00 0.00 0.00 0.00 0.00 0.01 0.01
0.00 0.00 0.00 0.00 0.00 0.00 0.00 0.00 0.00 0.00 0.00 0.00 0.00 0.00 0.00 0.00 0.00 0.00 0.00 0.00 0.00 0.00 0.00 0.00 0.00 0.00 0.00 0.00 0.00 0.00 0.00 0.00 0.00 0.00 0.00 0.00 0.00 0.00 0.00 0.00 0.00 0.00 0.00 0.00 0.00 0.00 0.00 0.01 0.01
0.00 0.00 0.00 0.00 0.00 0.00 0.00 0.00 0.00 0.00 0.00 0.00 0.00 0.00 0.00 0.00 0.00 0.00 0.00 0.00 0.00 0.00 0.00 0.00 0.00 0.00 0.00 0.00 0.00 0.00 0.00 0.00 0.00 0.00 0.00 0.00 0.00 0.00 0.00 0.00 0.00 0.00 0.00 0.00 0.00 0.00 0.00 0.00 0.01
0.00 0.00 0.00 0.00 0.00 0.00 0.00 0.00 0.00 0.00 0.00 0.00 0.00 0.00 0.00 0.00 0.00 0.00 0.00 0.00 0.00 0.00 0.00 0.00 0.00 0.00 0.00 0.00 0.00 0.00 0.00 0.00 0.00 0.00 0.00 0.00 0.00 0.00 0.00 0.00 0.00 0.00 0.00 0.00 0.00 0.00 0.00 0.00 0.00
0.00 0.00 0.00 0.00 0.00 0.00 0.00 0.00 0.00 0.00 0.00 0.00 0.00 0.00 0.00 0.00 0.00 0.00 0.00 0.00 0.00 0.00 0.00 0.00 0.00 0.00 0.00 0.00 0.00 0.00 0.00 0.00 0.00 0.00 0.00 0.00 0.00 0.00 0.00 0.00 0.00 0.00 0.00 0.00 0.00 0.00 0.00 0.00 0.00
0.00 0.00 0.00 0.00 0.00 0.00 0.00 0.00 0.00 0.00 0.00 0.00 0.00 0.00 0.00 0.00 0.00 0.00 0.00 0.00 0.00 0.00 0.00 0.00 0.00 0.00 0.00 0.00 0.00 0.00 0.00 0.00 0.00 0.00 0.00 0.00 0.00 0.00 0.00 0.00 0.00 0.00 0.00 0.00 0.00 0.00 0.00 0.00 0.00
0.00 0.00 0.00 0.00 0.00 0.00 0.00 0.00 0.00 0.00 0.00 0.00 0.00 0.00 0.00 0.00 0.00 0.00 0.00 0.00 0.00 0.00 0.00 0.00 0.00 0.00 0.00 0.00 0.00 0.00 0.00 0.00 0.00 0.00 0.00 0.00 0.00 0.00 0.00 0.00 0.00 0.00 0.00 0.00 0.00 0.00 0.00 0.00 0.00
0.00 0.00 0.00 0.00 0.00 0.00 0.00 0.00 0.00 0.00 0.00 0.00 0.00 0.00 0.00 0.00 0.00 0.00 0.00 0.00 0.00 0.00 0.00 0.00 0.00 0.00 0.00 0.00 0.00 0.00 0.00 0.00 0.00 0.00 0.00 0.00 0.00 0.00 0.00 0.00 0.00 0.00 0.00 0.00 0.00 0.00 0.00 0.00 0.00
0.00 0.00 0.00 0.00 0.00 0.00 0.00 0.00 0.00 0.00 0.00 0.00 0.00 0.00 0.00 0.00 0.00 0.00 0.00 0.00 0.00 0.00 0.00 0.00 0.00 0.00 0.00 0.00 0.00 0.00 0.00 0.00 0.00 0.00 0.00 0.00 0.00 0.00 0.00 0.00 0.00 0.00 0.00 0.00 0.00 0.00 0.00 0.00 0.00
0.00 0.00 0.00 0.00 0.00 0.00 0.00 0.00 0.00 0.00 0.00 0.00 0.00 0.00 0.00 0.00 0.00 0.00 0.00 0.00 0.00 0.00 0.00 0.00 0.00 0.00 0.00 0.00 0.00 0.00 0.00 0.00 0.00 0.00 0.00 0.00 0.00 0.00 0.00 0.00 0.00 0.00 0.00 0.00 0.00 0.00 0.00 0.00 0.01
0.00 0.00 0.00 0.00 0.00 0.00 0.00 0.00 0.00 0.00 0.00 0.00 0.00 0.00 0.00 0.00 0.00 0.00 0.00 0.00 0.00 0.00 0.00 0.00 0.00 0.00 0.00 0.00 0.00 0.00 0.00 0.00 0.00 0.00 0.00 0.00 0.00 0.00 0.00 0.00 0.00 0.00 0.00 0.00 0.00 0.00 0.00 0.00 0.00
0.00 0.00 0.00 0.00 0.00 0.00 0.00 0.00 0.00 0.00 0.00 0.00 0.00 0.00 0.00 0.00 0.00 0.00 0.00 0.00 0.00 0.00 0.00 0.00 0.00 0.00 0.00 0.00 0.00 0.00 0.00 0.00 0.00 0.00 0.00 0.00 0.00 0.00 0.00 0.00 0.00 0.00 0.00 0.00 0.00 0.00 0.00 0.00 0.00
0.00 0.00 0.00 0.00 0.00 0.00 0.00 0.00 0.00 0.00 0.00 0.00 0.00 0.00 0.00 0.00 0.00 0.00 0.00 0.00 0.00 0.00 0.00 0.00 0.00 0.00 0.00 0.00 0.00 0.00 0.00 0.00 0.00 0.00 0.00 0.00 0.00 0.00 0.00 0.00 0.00 0.00 0.00 0.00 0.00 0.00 0.00 0.00 0.00
0.00 0.00 0.00 0.00 0.00 0.00 0.00 0.00 0.00 0.00 0.00 0.00 0.00 0.00 0.00 0.00 0.00 0.00 0.00 0.00 0.00 0.00 0.00 0.00 0.00 0.00 0.00 0.00 0.00 0.00 0.00 0.00 0.00 0.00 0.00 0.00 0.00 0.00 0.00 0.00 0.00 0.00 0.00 0.00 0.00 0.00 0.00 0.00 0.00
0.00 0.00 0.00 0.00 0.00 0.00 0.00 0.00 0.00 0.00 0.00 0.00 0.00 0.00 0.00 0.00 0.00 0.00 0.00 0.00 0.00 0.00 0.00 0.00 0.00 0.00 0.00 0.00 0.00 0.00 0.00 0.00 0.00 0.00 0.00 0.00 0.00 0.00 0.00 0.00 0.00 0.00 0.00 0.00 0.00 0.00 0.00 0.00 0.00
0.00 0.00 0.00 0.00 0.00 0.00 0.00 0.00 0.00 0.00 0.00 0.00 0.00 0.00 0.00 0.00 0.00 0.00 0.00 0.00 0.00 0.00 0.00 0.00 0.00 0.00 0.00 0.00 0.00 0.00 0.00 0.00 0.00 0.00 0.00 0.00 0.00 0.00 0.00 0.00 0.00 0.00 0.00 0.00 0.00 0.00 0.00 0.00 0.00
0.00 0.00 0.00 0.00 0.00 0.00 0.00 0.00 0.00 0.00 0.00 0.00 0.00 0.00 0.00 0.00 0.00 0.00 0.00 0.00 0.00 0.00 0.00 0.00 0.00 0.00 0.00 0.00 0.00 0.00 0.00 0.00 0.00 0.00 0.00 0.00 0.00 0.00 0.00 0.00 0.00 0.00 0.00 0.00 0.00 0.00 0.00 0.00 0.00
MSLP
1012.19 1011.44 1010.82 1009.48 1008.07 1005.92 1004.87 1005.42 1005.87 1006.08 1006.77 1007.96 1008.18 1007.89 1008.85 1009.58 1010.28 1011.67 1014.31 1014.40 1014.37 1014.47 1014.64 1015.13 1015.60 1015.36 1015.42 1015.34 1015.25 1015.21 1015.09 1014.90 1014.88 1014.70 1014.64 1014.67 1014.56 1014.51 1014.51 1014.65 1014.61 1014.60 1014.47 1014.46 1014.57 1014.63 1014.72 1014.60 1014.62
1011.46 1011.10 1010.09 1008.13 1006.46 1004.59 1004.43 1005.94 1006.04 1006.84 1008.05 1008.61 1009.01 1009.37 1009.68 1011.35 1012.22 1013.25 1014.18 1014.91 1014.63 1014.80 1015.33 1015.61 1015.99 1015.85 1015.58 1015.63 1015.44 1015.47 1015.44 1015.36 1015.22 1015.16 1015.01 1014.89 1014.78 1014.79 1014.64 1014.62 1014.73 1014.60 1014.64 1014.60 1014.53 1014.62 1014.72 1014.75 1014.65
1011.64 1010.84 1008.72 1006.97 1005.66 1004.32 1004.66 1006.33 1006.89 1007.95 1008.73 1008.80 1009.63 1010.42 1011.27 1012.92 1013.80 1015.07 1015.88 1015.79 1015.95 1015.97 1015.89 1016.30 1016.29 1016.14 1016.06 1015.82 1015.67 1015.72 1015.77 1015.62 1015.52 1015.35 1015.27 1015.25 1015.12 1015.00 1014.90 1014.82 1014.78 1014.65 1014.63 1014.67 1014.46 1014.48 1014.65 1014.67 1014.63
1010.75 1009.73 1008.79 1006.96 1005.29 1006.08 1006.07 1006.97 1007.26 1008.16 1008.94 1009.30 1009.77 1011.22 1013.22 1015.25 1015.61 1016.72 1016.33 1016.17 1016.36 1016.19 1016.66 1016.93 1016.74 1016.54 1016.40 1016.31 1016.15 1016.05 1015.95 1015.82 1015.73 1015.50 1015.42 1015.29 1015.14 1015.06 1014.91 1014.85 1014.82 1014.72 1014.60 1014.67 1014.39 1014.37 1014.61 1014.49 1014.53
1010.32 1008.89 1007.08 1006.23 1005.82 1006.58 1007.21 1007.45 1007.70 1007.99 1008.81 1009.66 1010.08 1011.72 1013.68 1015.96 1017.10 1017.16 1016.80 1016.55 1016.64 1017.03 1017.03 1017.20 1017.22 1016.97 1016.93 1016.87 1016.70 1016.46 1016.25 1016.11 1015.91 1015.70 1015.57 1015.30 1015.11 1014.94 1014.85 1014.73 1014.65 1014.58 1014.64 1014.58 1014.45 1014.44 1014.52 1014.46 1014.48
1009.04 1008.65 1006.83 1005.80 1006.03 1006.90 1007.47 1008.04 1008.18 1008.32 1009.21 1010.15 1010.65 1011.96 1014.21 1016.54 1017.21 1017.60 1017.37 1016.96 1017.11 1017.42 1017.50 1017.51 1017.58 1017.59 1017.42 1017.42 1017.28 1017.01 1016.67 1016.45 1016.18 1015.97 1015.78 1015.51 1015.24 1014.93 1014.84 1014.61 1014.41 1014.40 1014.37 1014.35 1014.33 1014.40 1014.45 1014.40 1014.36
1008.87 1007.91 1006.57 1006.37 1006.47 1007.11 1007.59 1008.42 1008.39 1008.61 1009.32 1010.12 1011.03 1011.99 1014.61 1016.25 1017.23 1017.44 1017.30 1017.27 1017.60 1017.91 1017.93 1017.88 1017.73 1017.68 1017.69 1017.74 1017.62 1017.48 1017.20 1016.88 1016.59 1016.38 1016.09 1015.65 1015.28 1015.04 1014.80 1014.67 1014.43 1014.23 1014.14 1014.12 1014.10 1014.07 1014.23 1014.33 1014.26
1009.63 1008.43 1007.35 1006.95 1006.98 1006.93 1008.22 1008.36 1008.96 1008.73 1009.72 1010.96 1011.24 1011.91 1013.84 1015.84 1016.84 1016.98 1017.32 1017.69 1017.90 1018.18 1018.17 1018.21 1018.17 1018.21 1018.09 1017.90 1018.10 1017.84 1017.58 1017.27 1016.81 1016.47 1016.20 1015.68 1015.09 1014.72 1014.55 1014.36 1014.39 1014.32 1014.15 1013.97 1013.88 1013.85 1013.80 1013.97 1014.09
1010.36 1008.51 1007.04 1007.11 1007.65 1007.34 1008.47 1008.37 1009.41 1009.87 1010.20 1011.32 1012.40 1012.42 1013.43 1015.68 1016.52 1016.74 1017.09 1017.56 1017.99 1018.37 1018.49 1018.58 1018.49 1018.56 1018.45 1018.09 1018.09 1017.74 1017.54 1017.25 1016.95 1016.56 1016.32 1015.46 1015.03 1014.65 1014.02 1014.12 1014.28 1014.20 1013.95 1013.78 1013.65 1013.59 1013.60 1013.63 1013.66
1009.71 1008.61 1007.75 1008.47 1008.49 1008.23 1008.49 1008.24 1009.11 1009.55 1010.25 1011.59 1012.94 1014.01 1014.97 1015.67 1015.96 1016.12 1016.48 1017.16 1017.83 1018.25 1018.70 1018.74 1018.88 1018.91 1018.57 1018.16 1018.15 1017.78 1017.57 1017.34 1017.23 1016.99 1016.67 1016.03 1015.74 1015.25 1015.15 1014.38 1014.18 1013.88 1013.65 1013.38 1013.18 1013.12 1013.16 1013.31 1012.41
1010.00 1008.90 1009.22 1009.07 1009.35 1009.21 1008.98 1008.76 1009.10 1009.00 1009.66 1010.55 1011.82 1013.58 1014.71 1015.39 1015.80 1016.21 1016.77 1017.42 1017.81 1018.56 1018.93 1019.07 1019.19 1019.29 1019.10 1018.74 1018.48 1017.91 1017.64 1017.64 1017.33 1017.29 1017.17 1016.60 1016.11 1015.63 1014.96 1014.40 1013.78 1013.35 1012.94 1012.38 1012.04 1011.98 1012.10 1011.69 1011.32
1010.20 1009.85 1009.78 1009.59 1009.85 1009.58 1009.04 1009.12 1009.30 1009.30 1009.91 1010.87 1011.83 1013.51 1014.49 1015.19 1015.78 1016.31 1016.83 1017.29 1017.81 1018.46 1019.03 1019.30 1019.33 1019.44 1019.39 1018.99 1018.67 1018.30 1017.87 1017.86 1017.52 1017.53 1017.58 1017.02 1016.33 1015.97 1015.60 1014.91 1014.58 1013.97 1013.48 1013.87 1012.71 1011.36 1011.24 1011.07 1011.03
1010.50 1010.03 1010.12 1010.14 1009.98 1009.77 1009.83 1009.46 1009.52 1010.23 1011.32 1011.64 1012.76 1013.97 1014.66 1015.40 1016.31 1017.14 1017.57 1018.09 1018.39 1018.76 1019.21 1019.56 1019.65 1019.71 1019.52 1019.00 1018.94 1018.73 1018.39 1018.14 1018.14 1017.71 1017.67 1017.43 1016.84 1016.51 1016.03 1015.43 1015.00 1014.49 1013.95 1013.36 1013.80 1013.68 1012.06 1010.98 1010.74
1011.10 1010.70 1010.22 1010.14 1009.77 1009.78 1009.76 1009.78 1010.34 1011.29 1012.03 1012.76 1013.60 1014.19 1015.05 1015.91 1016.74 1017.52 1017.97 1018.28 1018.81 1019.29 1019.70 1019.87 1019.85 1020.03 1019.90 1019.47 1019.35 1018.98 1018.64 1018.39 1018.01 1017.72 1017.90 1017.77 1017.29 1016.83 1016.22 1015.73 1015.19 1014.64 1014.37 1014.03 1013.79 1013.63 1013.62 1012.75 1011.22
1011.46 1010.96 1010.23 1009.77 1009.63 1009.38 1009.58 1009.58 1009.54 1010.79 1012.14 1012.94 1013.65 1014.47 1015.33 1016.18 1017.02 1017.60 1018.26 1018.84 1019.28 1019.80 1020.02 1020.17 1020.21 1020.36 1020.05 1019.55 1019.27 1018.99 1018.79 1018.48 1018.02 1017.87 1018.05 1017.95 1017.54 1017.05 1016.62 1015.85 1015.44 1015.00 1014.93 1014.53 1013.68 1013.05 1012.71 1012.94 1012.08
1011.46 1011.12 1009.52 1009.02 1009.48 1009.43 1009.58 1008.28 1008.59 1010.76 1011.69 1012.41 1013.46 1014.47 1015.45 1016.54 1017.37 1018.24 1018.84 1019.25 1019.63 1019.97 1020.22 1020.39 1020.45 1020.54 1020.38 1020.01 1019.61 1019.17 1018.93 1018.51 1018.15 1018.08 1018.05 1018.15 1017.83 1017.47 1016.76 1015.91 1015.59 1015.48 1015.09 1014.46 1013.84 1013.15 1012.38 1011.95 1012.09
1011.11 1009.94 1009.14 1008.85 1009.49 1009.37 1009.49 1008.09 1008.84 1010.37 1011.19 1011.82 1013.13 1014.20 1015.26 1016.44 1017.69 1018.59 1019.15 1019.39 1019.79 1020.24 1020.27 1020.45 1020.67 1020.63 1020.55 1020.18 1019.82 1019.46 1019.13 1018.65 1018.45 1018.33 1018.14 1018.24 1017.80 1017.66 1017.13 1016.18 1015.68 1015.55 1014.85 1014.74 1014.53 1013.60 1012.95 1012.01 1011.35
1010.01 1010.11 1009.54 1009.28 1009.30 1009.58 1008.94 1008.59 1008.90 1010.32 1010.91 1011.15 1012.33 1013.34 1014.70 1016.08 1017.19 1018.65 1019.37 1019.70 1019.97 1020.34 1020.44 1020.58 1020.63 1020.73 1020.44 1019.79 1019.27 1018.79 1018.58 1018.60 1018.57 1018.40 1018.33 1018.39 1017.84 1017.55 1017.14 1016.29 1015.86 1015.44 1014.97 1014.82 1014.86 1014.83 1014.02 1013.08 1011.78
1011.03 1010.50 1009.91 1009.47 1009.97 1010.01 1009.04 1008.45 1008.32 1009.62 1010.46 1010.77 1011.55 1012.76 1014.14 1015.41 1017.18 1018.56 1019.37 1019.72 1019.91 1020.39 1020.36 1020.49 1020.44 1020.63 1020.31 1019.65 1019.23 1018.88 1018.71 1018.76 1018.65 1018.64 1018.68 1018.39 1017.98 1017.59 1017.08 1016.34 1016.11 1015.83 1015.52 1015.33 1014.98 1014.75 1014.44 1013.08 1012.03
1011.46 1010.93 1010.03 1009.61 1009.80 1010.20 1009.00 1008.12 1008.16 1008.58 1009.52 1009.92 1010.80 1012.11 1013.56 1015.24 1017.11 1018.08 1018.77 1019.31 1019.85 1020.08 1020.40 1020.45 1020.64 1020.78 1020.58 1020.17 1020.04 1019.97 1019.63 1019.15 1018.95 1018.62 1018.47 1018.27 1018.11 1017.69 1017.25 1016.99 1016.59 1016.46 1016.15 1015.59 1015.02 1014.79 1014.35 1013.65 1012.72
1011.23 1011.15 1010.81 1010.54 1010.11 1009.98 1009.22 1007.58 1007.08 1008.41 1009.21 1009.77 1010.48 1011.49 1013.01 1014.56 1016.14 1017.44 1018.34 1018.98 1019.50 1019.91 1020.39 1020.54 1020.76 1020.82 1020.77 1020.83 1020.25 1019.98 1019.21 1018.67 1018.44 1018.46 1018.09 1018.11 1017.99 1017.61 1017.44 1017.38 1017.04 1016.64 1016.32 1015.62 1015.23 1014.83 1014.39 1013.47 1013.24
1010.72 1010.99 1011.09 1010.88 1010.57 1009.01 1009.27 1006.43 1005.87 1007.38 1008.62 1009.57 1010.23 1011.07 1012.36 1013.96 1015.63 1016.93 1018.00 1018.71 1019.45 1020.09 1020.55 1020.70 1020.86 1020.70 1020.82 1020.90 1020.62 1020.52 1019.75 1019.09 1018.98 1018.53 1018.23 1017.83 1017.66 1017.58 1017.46 1017.50 1017.21 1016.70 1016.27 1015.68 1015.28 1014.68 1014.51 1013.65 1013.20
1010.90 1011.45 1011.27 1010.90 1010.23 1009.29 1008.46 1008.08 1005.50 1006.34 1007.58 1008.42 1009.64 1010.83 1012.28 1013.93 1015.52 1016.74 1017.72 1018.64 1019.48 1020.19 1020.47 1020.69 1020.77 1020.77 1020.78 1020.90 1020.96 1020.62 1020.16 1019.69 1019.20 1018.86 1018.47 1017.99 1017.51 1017.44 1017.39 1017.50 1017.27 1016.77 1016.13 1015.60 1015.22 1014.67 1014.18 1013.77 1013.32
1011.58 1011.62 1011.37 1011.20 1010.39 1008.46 1007.66 1007.49 1005.21 1005.41 1006.60 1007.62 1008.75 1010.44 1012.23 1013.95 1015.78 1017.12 1018.04 1018.75 1019.32 1020.04 1020.30 1020.63 1020.75 1020.65 1020.85 1020.90 1020.88 1020.77 1020.43 1019.94 1019.39 1018.91 1018.35 1017.89 1017.62 1017.45 1017.39 1017.32 1017.09 1016.56 1015.93 1015.53 1015.02 1014.70 1014.23 1013.63 1013.03
1011.62 1011.17 1010.46 1009.83 1009.39 1007.29 1007.51 1007.20 1005.39 1006.57 1007.67 1008.41 1008.75 1010.23 1012.23 1014.24 1015.96 1017.13 1017.73 1018.43 1019.29 1020.00 1020.47 1020.71 1020.66 1020.60 1020.91 1020.98 1020.84 1020.66 1020.32 1019.82 1019.28 1018.95 1018.61 1018.21 1017.77 1017.48 1017.25 1017.51 1016.96 1016.37 1015.89 1015.35 1014.85 1014.53 1013.90 1013.22 1012.45
1010.93 1010.93 1010.24 1009.10 1008.48 1007.19 1007.94 1006.21 1005.62 1007.53 1008.60 1009.29 1010.02 1010.82 1012.79 1014.60 1016.20 1016.91 1017.75 1018.64 1019.48 1020.17 1020.58 1020.84 1020.88 1020.76 1020.82 1020.86 1020.76 1020.58 1020.41 1019.97 1019.47 1019.11 1018.97 1018.51 1018.16 1017.67 1017.45 1017.22 1017.06 1016.45 1015.80 1015.21 1014.62 1014.31 1013.50 1012.93 1012.17
1010.25 1010.68 1010.70 1010.63 1010.19 1009.46 1007.37 1006.00 1006.95 1007.99 1008.83 1009.79 1010.28 1011.28 1013.01 1014.68 1016.07 1016.95 1018.08 1018.88 1019.58 1020.18 1020.66 1020.96 1021.04 1020.81 1020.76 1020.75 1020.61 1020.45 1020.35 1020.17 1019.82 1019.66 1019.31 1018.85 1018.19 1017.71 1017.32 1017.19 1016.86 1016.28 1015.68 1015.01 1014.49 1013.89 1013.18 1012.58 1011.79
1010.51 1010.89 1011.20 1012.11 1011.36 1009.59 1007.19 1006.38 1005.86 1007.01 1008.13 1009.86 1011.02 1012.12 1013.52 1014.88 1015.98 1016.96 1018.10 1019.11 1019.74 1020.20 1020.54 1020.93 1021.14 1021.01 1021.00 1020.99 1020.83 1020.64 1020.43 1020.33 1020.26 1019.98 1019.44 1018.93 1018.35 1017.81 1017.33 1016.94 1016.61 1016.06 1015.39 1014.72 1014.21 1013.52 1012.83 1012.27 1011.48
1011.05 1011.04 1011.24 1011.73 1011.75 1009.68 1007.56 1005.74 1006.28 1006.87 1007.63 1009.39 1010.64 1011.83 1013.20 1014.59 1015.80 1017.03 1018.25 1019.17 1019.76 1020.31 1020.71 1021.02 1021.14 1021.12 1021.14 1021.16 1021.10 1020.92 1020.86 1020.60 1020.34 1020.06 1019.40 1018.83 1018.39 1017.91 1017.42 1016.85 1016.49 1015.88 1015.07 1014.37 1013.88 1013.11 1012.45 1011.84 1010.96
1010.84 1010.58 1010.89 1011.30 1011.15 1009.96 1008.65 1005.86 1006.93 1007.67 1008.25 1009.15 1010.32 1011.79 1013.08 1014.45 1015.60 1016.97 1018.61 1019.71 1020.28 1020.65 1020.94 1021.12 1021.34 1021.41 1021.55 1021.38 1021.20 1020.90 1020.94 1020.79 1020.39 1020.06 1019.70 1018.93 1018.42 1017.80 1017.47 1016.91 1016.45 1015.88 1014.96 1014.41 1013.60 1012.79 1012.28 1011.53 1010.60
Thickness
5765 5770 5776 5777 5761 5773 5762 5761 5773 5766 5763 5766 5769 5769 5757 5756 5744 5729 5737 5738 5737 5735 5731 5726 5723 5725 5723 5722 5723 5722 5722 5723 5723 5724 5724 5722 5722 5722 5720 5717 5716 5715 5715 5713 5710 5708 5706 5706 5704
5767 5769 5772 5773 5760 5761 5764 5764 5760 5762 5758 5762 5759 5757 5754 5732 5746 5739 5733 5732 5732 5730 5724 5721 5718 5717 5719 5717 5718 5717 5716 5716 5717 5717 5718 5718 5718 5717 5717 5716 5713 5713 5710 5709 5709 5706 5704 5703 5702
5762 5767 5763 5763 5762 5762 5758 5758 5758 5755 5755 5755 5745 5752 5744 5728 5735 5725 5721 5722 5719 5717 5717 5713 5712 5712 5711 5713 5714 5712 5710 5711 5711 5713 5713 5713 5713 5713 5713 5712 5711 5710 5709 5706 5707 5706 5703 5701 5700
5759 5762 5759 5751 5755 5754 5756 5754 5760 5750 5750 5753 5750 5729 5731 5720 5719 5710 5716 5715 5713 5711 5706 5703 5704 5705 5705 5706 5706 5706 5705 5706 5707 5709 5709 5709 5710 5710 5710 5709 5708 5707 5706 5703 5705 5704 5700 5700 5698
5758 5756 5746 5747 5750 5750 5752 5756 5758 5750 5746 5740 5746 5724 5719 5710 5705 5706 5708 5710 5707 5701 5698 5695 5696 5698 5698 5698 5698 5700 5700 5700 5702 5703 5704 5706 5706 5707 5707 5707 5706 5706 5702 5702 5702 5700 5698 5697 5695
5745 5747 5736 5738 5744 5746 5747 5749 5748 5746 5741 5734 5733 5726 5714 5703 5699 5697 5699 5702 5699 5693 5690 5688 5688 5689 5691 5690 5691 5692 5694 5695 5696 5697 5698 5700 5702 5703 5703 5704 5704 5703 5701 5700 5699 5697 5696 5694 5693
5738 5737 5736 5738 5735 5734 5740 5744 5739 5738 5734 5728 5733 5717 5708 5699 5695 5695 5696 5695 5689 5684 5682 5681 5682 5682 5683 5683 5684 5684 5685 5687 5689 5690 5692 5694 5696 5697 5698 5699 5699 5700 5699 5698 5697 5696 5693 5692 5691
5734 5734 5725 5731 5724 5728 5734 5737 5736 5737 5726 5729 5731 5712 5702 5698 5694 5694 5690 5685 5681 5676 5675 5673 5673 5672 5673 5675 5675 5676 5677 5680 5683 5684 5686 5690 5692 5693 5694 5695 5694 5694 5694 5695 5695 5693 5693 5690 5688
5728 5721 5722 5722 5716 5724 5729 5726 5726 5729 5721 5715 5710 5715 5713 5696 5691 5687 5683 5678 5674 5669 5667 5666 5666 5665 5665 5667 5667 5670 5671 5673 5674 5677 5679 5684 5686 5688 5692 5691 5690 5691 5692 5692 5692 5692 5690 5689 5687
5717 5713 5718 5719 5719 5717 5721 5726 5719 5716 5711 5702 5695 5696 5693 5689 5686 5684 5681 5674 5667 5663 5660 5660 5658 5657 5658 5660 5660 5662 5663 5665 5666 5668 5670 5674 5676 5679 5679 5685 5686 5687 5689 5690 5690 5690 5689 5687 5691
5707 5707 5709 5711 5711 5711 5709 5713 5718 5716 5706 5709 5699 5689 5686 5683 5681 5678 5672 5666 5664 5657 5654 5653 5651 5649 5649 5650 5651 5655 5657 5657 5659 5660 5661 5665 5668 5670 5674 5678 5682 5685 5688 5690 5692 5692 5690 5693 5695
5692 5702 5702 5704 5703 5702 5703 5709 5703 5710 5706 5707 5703 5690 5683 5677 5674 5670 5666 5662 5658 5652 5648 5645 5645 5643 5642 5643 5644 5647 5650 5650 5652 5653 5652 5656 5660 5663 5665 5669 5671 5674 5677 5674 5681 5691 5691 5692 5692
5684 5693 5694 5694 5695 5697 5696 5696 5696 5694 5691 5696 5687 5679 5674 5670 5663 5656 5655 5650 5647 5643 5640 5636 5635 5634 5635 5638 5637 5639 5641 5643 5643 5646 5647 5647 5650 5652 5655 5659 5661 5664 5668 5672 5668 5669 5681 5689 5688
5677 5679 5685 5687 5689 5689 5685 5685 5683 5679 5680 5674 5670 5669 5664 5658 5654 5648 5645 5643 5637 5633 5629 5628 5628 5626 5627 5629 5630 5632 5634 5635 5638 5641 5639 5639 5641 5643 5646 5649 5652 5655 5657 5659 5661 5662 5661 5666 5678
5666 5662 5675 5680 5682 5681 5685 5671 5680 5679 5670 5663 5662 5659 5655 5651 5646 5642 5637 5631 5628 5623 5621 5619 5619 5618 5621 5624 5626 5626 5627 5629 5632 5633 5632 5632 5634 5636 5637 5641 5643 5646 5646 5648 5653 5657 5659 5657 5663
5652 5655 5661 5678 5674 5676 5675 5672 5691 5673 5666 5660 5655 5651 5646 5639 5635 5629 5625 5622 5619 5616 5613 5611 5611 5610 5612 5614 5616 5619 5620 5622 5625 5625 5625 5624 5625 5626 5629 5634 5635 5634 5635 5639 5643 5648 5652 5654 5651
5648 5648 5660 5665 5670 5668 5665 5675 5679 5671 5664 5661 5652 5645 5639 5634 5625 5619 5616 5616 5612 5608 5607 5605 5602 5602 5603 5605 5607 5610 5612 5614 5616 5616 5616 5615 5616 5615 5617 5622 5624 5624 5627 5627 5627 5634 5637 5642 5645
5646 5640 5651 5651 5662 5657 5661 5664 5671 5662 5658 5660 5652 5648 5638 5629 5624 5613 5608 5606 5604 5601 5600 5597 5596 5594 5596 5600 5603 5606 5607 5606 5606 5606 5605 5604 5606 5607 5608 5612 5614 5615 5617 5617 5615 5613 5617 5621 5630
5639 5639 5641 5654 5649 5641 5651 5658 5668 5660 5654 5655 5653 5646 5638 5631 5619 5609 5602 5600 5598 5594 5594 5592 5591 5588 5590 5595 5596 5598 5598 5597 5596 5594 5593 5593 5594 5595 5597 5601 5601 5602 5604 5602 5603 5602 5601 5608 5613
5627 5628 5638 5650 5647 5633 5647 5652 5662 5662 5654 5657 5652 5644 5635 5625 5611 5605 5601 5597 5592 5590 5586 5586 5583 5580 5580 5582 5581 5580 5582 5584 5584 5584 5584 5583 5582 5583 5584 5584 5585 5585 5587 5588 5591 5590 5590 5590 5590
5622 5616 5619 5622 5635 5635 5635 5649 5661 5652 5651 5652 5650 5646 5635 5624 5612 5602 5597 5593 5589 5585 5579 5577 5574 5571 5569 5566 5570 5571 5575 5578 5578 5575 5576 5573 5572 5572 5571 5569 5570 5571 5572 5576 5576 5576 5575 5577 5571
5613 5621 5616 5615 5614 5625 5628 5638 5663 5655 5641 5638 5640 5639 5631 5620 5609 5599 5591 5587 5580 5574 5569 5567 5564 5563 5560 5557 5558 5555 5560 5564 5561 5563 5563 5563 5562 5561 5559 5556 5555 5557 5559 5563 5563 5564 5560 5561 5558
5607 5608 5607 5609 5612 5620 5628 5615 5659 5658 5644 5643 5635 5630 5623 5612 5600 5590 5584 5576 5569 5562 5560 5557 5555 5553 5551 5548 5544 5545 5545 5547 5549 5550 5550 5551 5550 5548 5546 5543 5542 5544 5547 5550 5550 5551 5550 5547 5545
5598 5594 5595 5596 5601 5603 5626 5622 5653 5657 5648 5647 5642 5628 5614 5602 5587 5577 5570 5564 5560 5552 5549 5545 5543 5542 5539 5536 5534 5531 5531 5532 5535 5537 5539 5540 5538 5536 5532 5530 5529 5531 5535 5535 5537 5536 5536 5535 5534
5583 5585 5583 5586 5584 5606 5617 5613 5646 5638 5630 5628 5632 5622 5606 5589 5575 5566 5562 5557 5548 5541 5536 5532 5531 5530 5525 5522 5521 5520 5520 5521 5523 5524 5524 5524 5524 5522 5521 5515 5517 5520 5520 5522 5524 5523 5524 5525 5527
5573 5576 5573 5573 5592 5611 5596 5607 5637 5619 5611 5610 5607 5608 5591 5576 5563 5559 5552 5544 5535 5527 5523 5519 5516 5515 5512 5510 5508 5508 5506 5508 5510 5511 5508 5507 5507 5507 5505 5505 5504 5505 5507 5509 5511 5511 5514 5515 5517
5571 5560 5578 5561 5571 5563 5597 5620 5613 5604 5599 5592 5594 5588 5574 5562 5553 5547 5536 5529 5522 5515 5509 5504 5501 5501 5499 5497 5496 5495 5493 5492 5492 5490 5490 5491 5493 5494 5493 5491 5491 5492 5493 5497 5498 5501 5503 5504 5508
5559 5564 5544 5534 5528 5538 5587 5596 5608 5598 5593 5578 5571 5566 5557 5548 5541 5534 5524 5514 5508 5502 5497 5490 5485 5484 5482 5481 5480 5478 5477 5475 5473 5472 5475 5475 5476 5478 5479 5479 5478 5479 5481 5484 5486 5489 5492 5493 5496
5538 5538 5542 5536 5535 5550 5569 5597 5597 5590 5587 5573 5567 5559 5550 5540 5533 5523 5511 5500 5494 5488 5482 5477 5472 5470 5468 5466 5462 5461 5459 5458 5458 5457 5460 5462 5461 5461 5462 5464 5463 5465 5468 5471 5474 5477 5480 5482 5486
5538 5543 5544 5526 5535 5547 5554 5582 5585 5575 5575 5569 5559 5544 5538 5529 5521 5509 5493 5482 5476 5472 5468 5463 5458 5455 5451 5450 5447 5447 5444 5442 5442 5443 5441 5444 5445 5446 5445 5446 5447 5449 5453 5455 5459 5464 5465 5469 5475